Regional Weather Roundup
Issued by NWS

Home | Current Version | Previous Version | Text Only | Print | Product List | Glossary Off
Versions: 1 2 3 4 5 6 7 8 9 10 11 12 13 14 15 16 17 18 19 20 21 22 23 24 25 26 27 28 29 30 31 32 33 34 35 36 37 38 39 40 41 42 43 44 45 46 47 48 49 50

000
ASUS43 KBIS 232210
RWRND
NORTH DAKOTA REGIONAL WEATHER ROUNDUP
NATIONAL WEATHER SERVICE EASTERN NORTH DAKOTA/GRAND FORKS ND
500 PM CDT FRI JUN 23 2017

  NOTE: "FAIR" INDICATES FEW OR NO CLOUDS BELOW 12,000 FEET WITH NO
  SIGNIFICANT WEATHER AND/OR OBSTRUCTIONS TO VISIBILITY.

NDZ001>003-009>011-017-232300-
...NORTHWEST NORTH DAKOTA...

CITY           SKY/WX    TMP DP  RH WIND       PRES   REMARKS
WILLISTON      PTSUNNY   69  32  25 NW23G30   30.11F
MINOT          PTSUNNY   61  35  37 NW25G36   30.05R
MINOT AFB      CLOUDY    61  35  37 NW25G33   30.03S
$$

NDZ018>021-031>035-040>046-232300-
...SOUTHWEST NORTH DAKOTA...

CITY           SKY/WX    TMP DP  RH WIND       PRES   REMARKS
BISMARCK       FAIR      68  35  29 NW25G33   30.05S
DICKINSON      PTSUNNY   66  27  23 NW22G33   30.10S
GARRISON         N/A     63  37  38 N30G38    30.05S
HETTINGER      FAIR      66  29  24 NW25G37   30.13S
$$

NDZ004>008-012>016-024-026-027-054-232300-
...NORTHEAST NORTH DAKOTA...

CITY           SKY/WX    TMP DP  RH WIND       PRES   REMARKS
GRAND FORKS    PTSUNNY   66  43  43 NW18G28   29.90R
GRAND FORKS AF PTSUNNY   65  42  43 NW16G26   29.91R
DEVILS LAKE    CLOUDY    59  40  49 NW24G30   29.97R
$$

NDZ022-023-025-028>030-036>039-047>053-232300-
...SOUTHEAST NORTH DAKOTA...

CITY           SKY/WX    TMP DP  RH WIND       PRES   REMARKS
JAMESTOWN      CLOUDY    66  39  37 NW25G36   29.97S
FARGO          CLOUDY    65  44  46 NW15G24   29.91S
WAHPETON       CLOUDY    63  41  45 NW14G21   29.94R
$$



USA.gov is the U.S. government's official web portal to all federal, state and local government web resources and services.